Regional Weather Roundup
Issued by NWS

Home | Current Version | Previous Version | Graphics & Text | Print | Product List | Glossary Off
Versions: 1 2 3 4 5 6 7 8 9 10 11 12 13 14 15 16 17 18 19 20 21 22 23 24 25 26 27 28 29 30 31 32 33 34 35 36 37 38 39 40 41 42 43 44 45 46 47 48 49 50

000
ASUS43 KLMK 240210
RWRKY
KENTUCKY REGIONAL WEATHER ROUNDUP
NATIONAL WEATHER SERVICE LOUISVILLE KY
900 PM EST TUE JAN 23 2018

NOTE "FAIR" INDICATES FEW OR NO CLOUDS BELOW 12,000 FEET
WITH NO SIGNIFICANT WEATHER AND/OR OBSTRUCTIONS TO VISIBILITY.

KYZ001>023-026-027-061>063-070>075-240300-
WESTERN AND SOUTH CENTRAL KENTUCKY

CITY           SKY/WX    TMP DP  RH WIND       PRES   REMARKS
PADUCAH        MOCLDY    36  29  75 SW3       30.23R
HENDERSON      CLOUDY    35  29  78 NW12      30.23R WCI  27
OWENSBORO      CLOUDY    35  28  75 NW13      30.22R WCI  26
HOPKINSVILLE   CLOUDY    38  28  67 NW9       30.22R WCI  31
BOWLING GREEN  CLOUDY    37  32  82 NW8G20    30.21R WCI  31
GLASGOW        CLOUDY    36  33  90 W6        30.18R WCI  31
$$

KYZ024-025-028>034-038-045-046-053-240300-
NORTH CENTRAL KENTUCKY

CITY           SKY/WX    TMP DP  RH WIND       PRES   REMARKS
LOUISVILLE/SDF CLOUDY    35  31  85 W13       30.15R WCI  26
LOUISVILLE/LOU CLOUDY    35  30  82 W12G24    30.16R WCI  27
FORT KNOX      CLOUDY    33  30  90 W10       30.14R WCI  25
$$

KYZ035>037-039>044-047>052-055>060-089>105-240300-
NORTHEAST KENTUCKY

CITY           SKY/WX    TMP DP  RH WIND       PRES   REMARKS
LEXINGTON      CLOUDY    36  31  82 W13       30.11R WCI  27
COVINGTON      LGT SNOW  34  32  92 W18       30.07R FOG     WCI  23
FRANKFORT      CLOUDY    36  31  82 W9        30.11R WCI  29
$$

KYZ054-064>069-076>088-106>120-240300-
SOUTHEAST KENTUCKY

CITY           SKY/WX    TMP DP  RH WIND       PRES   REMARKS
JACKSON        CLOUDY    38  29  70 VRB7G20   30.08R WCI  33
LONDON         CLOUDY    38  30  73 W9        30.11R WCI  31
SOMERSET       CLOUDY    36  30  80 W12       30.16R WCI  27
MIDDLESBORO    CLOUDY    41  30  66 CALM      30.12R
MONTICELLO     NOT AVBL
$$





USA.gov is the U.S. government's official web portal to all federal, state and local government web resources and services.